Location: Christchurch
(43.5330°S, 172.6330°E)
Time: 20:22:59
(UTC+13:00)

H-2A R/B - Pass Details

Date: 24 January 2019
Orbit: 258 x 32962 km, 27.9° (Epoch: 20 February)

Event Time Altitude Azimuth Distance (km) Brightness Sun altitude
Rises 22:06:03 0° 334° (NNW) 2,475 4.5 -10.2°
Reaches altitude 10° 22:08:07 10° 1° (N) 2,150 4.0 -10.5°
Maximum altitude 22:11:16 16° 42° (NE) 2,659 4.1 -10.9°
Drops below altitude 10° 22:18:15 10° 76° (ENE) 5,421 5.8 -11.9°
Sets 22:31:41 0° 88° (E) 10,644 7.4 -13.7°
